Weather History for KHYS - June, 2013

Change the Weather History Date:

Saturday, June 8, 2013

  Actual Average Record
Temperature  
Mean Temperature 71 °F -  
Max Temperature 82 °F 81 °F 96 °F (2006)
Min Temperature 60 °F 56 °F 44 °F (2003)
Cooling Degree Days 6    
Growing Degree Days 21 (Base 50)    
Moisture  
Dew Point 58 °F    
Average Humidity 70    
Maximum Humidity 94    
Minimum Humidity 42    
Precipitation  
Precipitation 0.13 in - - ()
Sea Level Pressure  
Sea Level Pressure 29.78 in    
Wind  
Wind Speed 11 mph (South)    
Max Wind Speed 22 mph    
Max Gust Speed 34 mph    
Visibility 10 miles    
Events Thunderstorm    
Averages and records for this station are not official NWS values.
T = Trace of Precipitation, MM = Missing Value Source: NWS Daily Summary

Daily Weather History Graph

Daily Weather History Graph

Search for Another Location

Airport or City:

Trip Planner

Search our weather history database for the weather conditions in past years. The results will help you decide how hot, cold, wet, or windy it might be!

Date:

Astronomy

Jun. 08, 2013 Rise Set
Actual Time 6:11 AM CDT 9:00 PM CDT
Civil Twilight 5:40 AM CDT 9:32 PM CDT
Nautical Twilight 5:00 AM CDT 10:12 PM CDT
Astronomical Twilight 4:14 AM CDT 10:58 PM CDT
Moon 6:20 AM CDT (6/8) 9:05 PM CDT (6/8)
Length of Visible Light 15h 52m
Length of Day
14h 49m
New Moon, 0% of the Moon is Illuminated
Jun 8
New Moon
Jun 16
First Quarter
Jun 23
Full
Jun 29
Last Quarter
Jul 8
New

Hourly Weather History & Observations

Time (CDT) Temp. Heat Index Dew Point Humidity Pressure Visibility Wind Dir Wind Speed Gust Speed Precip Events Conditions
12:15 AM 66.2 °F - 55.4 °F 68% 29.87 in 10.0 mi SSE 13.8 mph - N/A   Mostly Cloudy
12:35 AM 64.4 °F - 55.4 °F 73% 29.86 in 10.0 mi SSE 9.2 mph - N/A   Scattered Clouds
12:55 AM 64.4 °F - 53.6 °F 68% 29.87 in 10.0 mi SSE 6.9 mph - N/A   Clear
1:15 AM 62.6 °F - 55.4 °F 77% 29.87 in 10.0 mi South 6.9 mph - N/A   Clear
1:35 AM 62.6 °F - 55.4 °F 77% 29.86 in 10.0 mi South 9.2 mph - N/A   Clear
1:55 AM 64.4 °F - 55.4 °F 73% 29.84 in 10.0 mi SSE 10.4 mph - N/A   Clear
2:15 AM 64.4 °F - 55.4 °F 73% 29.82 in 10.0 mi SE 15.0 mph - N/A   Clear
2:35 AM 64.4 °F - 53.6 °F 68% 29.82 in 10.0 mi South 12.7 mph - N/A   Clear
2:55 AM 64.4 °F - 53.6 °F 68% 29.82 in 10.0 mi South 13.8 mph - N/A   Clear
3:15 AM 64.4 °F - 53.6 °F 68% 29.82 in 10.0 mi South 12.7 mph - N/A   Clear
3:35 AM 62.6 °F - 53.6 °F 72% 29.82 in 10.0 mi South 11.5 mph - N/A   Clear
3:55 AM 62.6 °F - 53.6 °F 72% 29.82 in 10.0 mi South 10.4 mph - N/A   Clear
4:15 AM 62.6 °F - 53.6 °F 72% 29.81 in 10.0 mi South 10.4 mph - N/A   Clear
4:35 AM 62.6 °F - 53.6 °F 72% 29.81 in 10.0 mi South 10.4 mph - N/A   Clear
4:55 AM 62.6 °F - 53.6 °F 72% 29.79 in 10.0 mi South 11.5 mph - N/A   Clear
5:15 AM 60.8 °F - 53.6 °F 77% 29.79 in 10.0 mi South 6.9 mph - N/A   Clear
5:35 AM 60.8 °F - 53.6 °F 77% 29.79 in 10.0 mi South 6.9 mph - N/A   Clear
5:55 AM 60.8 °F - 53.6 °F 77% 29.79 in 10.0 mi South 8.1 mph - N/A   Clear
6:15 AM 60.8 °F - 53.6 °F 77% 29.78 in 10.0 mi SSE 9.2 mph - N/A   Clear
6:35 AM 60.8 °F - 53.6 °F 77% 29.78 in 10.0 mi SSE 8.1 mph - N/A   Clear
6:55 AM 60.8 °F - 53.6 °F 77% 29.78 in 10.0 mi South 8.1 mph - N/A   Clear
7:15 AM 60.8 °F - 55.4 °F 82% 29.78 in 10.0 mi South 9.2 mph - N/A   Clear
7:35 AM 60.8 °F - 55.4 °F 82% 29.78 in 10.0 mi South 9.2 mph - N/A   Clear
7:55 AM 64.4 °F - 55.4 °F 73% 29.77 in 10.0 mi South 12.7 mph 16.1 mph N/A   Clear
8:15 AM 64.4 °F - 55.4 °F 73% 29.77 in 10.0 mi South 11.5 mph - N/A   Clear
8:35 AM 69.8 °F - 57.2 °F 64% 29.76 in 10.0 mi South 15.0 mph 18.4 mph N/A   Clear
8:55 AM 69.8 °F - 55.4 °F 60% 29.76 in 10.0 mi South 16.1 mph 21.9 mph N/A   Clear
9:15 AM 69.8 °F - 55.4 °F 60% 29.75 in 10.0 mi South 13.8 mph 21.9 mph N/A   Clear
9:35 AM 71.6 °F - 55.4 °F 57% 29.76 in 10.0 mi South 18.4 mph 23.0 mph N/A   Clear
9:55 AM 73.4 °F - 57.2 °F 57% 29.77 in 10.0 mi SSW 16.1 mph 21.9 mph N/A   Clear
10:15 AM 73.4 °F - 57.2 °F 57% 29.75 in 10.0 mi South 18.4 mph 24.2 mph N/A   Clear
10:35 AM 73.4 °F - 55.4 °F 53% 29.73 in 10.0 mi South 15.0 mph 20.7 mph N/A   Clear
10:55 AM 73.4 °F - 55.4 °F 53% 29.71 in 10.0 mi South 17.3 mph 24.2 mph N/A   Clear
11:15 AM 73.4 °F - 55.4 °F 53% 29.71 in 10.0 mi South 16.1 mph 24.2 mph N/A   Partly Cloudy
11:35 AM 75.2 °F - 57.2 °F 53% 29.70 in 10.0 mi South 21.9 mph 25.3 mph N/A   Partly Cloudy
11:55 AM 75.2 °F - 57.2 °F 53% 29.68 in 10.0 mi South 21.9 mph 31.1 mph N/A   Clear
12:15 PM 78.8 °F - 57.2 °F 47% 29.70 in 10.0 mi South 17.3 mph 26.5 mph N/A   Partly Cloudy
12:35 PM 75.2 °F - 55.4 °F 50% 29.72 in 10.0 mi SSW 18.4 mph 27.6 mph N/A   Scattered Clouds
12:55 PM 75.2 °F - 57.2 °F 53% 29.72 in 10.0 mi South 19.6 mph 24.2 mph N/A   Partly Cloudy
1:15 PM 75.2 °F - 57.2 °F 53% 29.70 in 10.0 mi South 20.7 mph 26.5 mph N/A   Scattered Clouds
1:35 PM 75.2 °F - 57.2 °F 53% 29.70 in 10.0 mi South 15.0 mph 19.6 mph N/A   Overcast
1:55 PM 77.0 °F - 57.2 °F 50% 29.70 in 10.0 mi South 13.8 mph 17.3 mph N/A   Overcast
2:15 PM 80.6 °F 80.8 °F 57.2 °F 45% 29.71 in 10.0 mi SSW 13.8 mph - N/A   Mostly Cloudy
2:35 PM 82.4 °F 82.0 °F 57.2 °F 42% 29.71 in 10.0 mi SSW 12.7 mph - N/A   Partly Cloudy
2:55 PM 82.4 °F 82.0 °F 57.2 °F 42% 29.71 in 10.0 mi SSW 11.5 mph - N/A   Scattered Clouds
3:15 PM 82.4 °F 82.0 °F 57.2 °F 42% 29.69 in 10.0 mi SW 12.7 mph 18.4 mph N/A   Overcast
3:35 PM 80.6 °F 80.8 °F 57.2 °F 45% 29.67 in 10.0 mi SW 5.8 mph - N/A Thunderstorm Thunderstorm
3:55 PM 75.2 °F - 60.8 °F 61% 29.72 in 6.0 mi WSW 21.9 mph 34.5 mph 0.11 in Thunderstorm Thunderstorm
4:15 PM - - - N/A% - - North - - 0.02 in Thunderstorm Thunderstorm
4:35 PM - - - N/A% - - North - - 0.02 in Thunderstorm Thunderstorm
4:55 PM - - - N/A% - - North - - 0.02 in Thunderstorm Unknown
5:15 PM 68.0 °F - 64.4 °F 88% 29.71 in 10.0 mi ESE 9.2 mph - N/A   Unknown
5:35 PM 68.0 °F - 64.4 °F 88% 29.73 in 10.0 mi SE 8.1 mph - N/A   Partly Cloudy
5:55 PM 69.8 °F - 64.4 °F 83% 29.76 in 10.0 mi NNE 6.9 mph - N/A   Clear
6:15 PM 71.6 °F - 64.4 °F 78% 29.76 in 10.0 mi East 6.9 mph - N/A   Partly Cloudy
6:35 PM 71.6 °F - 64.4 °F 78% 29.77 in 10.0 mi ENE 4.6 mph - N/A   Clear
6:55 PM 71.6 °F - 62.6 °F 73% 29.77 in 10.0 mi NE 5.8 mph - N/A   Clear
7:15 PM 71.6 °F - 62.6 °F 73% 29.80 in 10.0 mi North 3.5 mph - N/A   Clear
7:35 PM 71.6 °F - 64.4 °F 78% 29.80 in 10.0 mi ENE 4.6 mph - N/A   Partly Cloudy
7:55 PM 71.6 °F - 64.4 °F 78% 29.80 in 10.0 mi East 4.6 mph - N/A   Partly Cloudy
8:15 PM 71.6 °F - 64.4 °F 78% 29.82 in 10.0 mi East 4.6 mph - N/A   Clear
8:35 PM 71.6 °F - 64.4 °F 78% 29.82 in 10.0 mi ESE 3.5 mph - N/A   Clear
8:55 PM 69.8 °F - 64.4 °F 83% 29.82 in 10.0 mi Calm Calm - N/A   Clear
9:15 PM 66.2 °F - 64.4 °F 94% 29.83 in 10.0 mi Calm Calm - N/A   Clear
9:35 PM 66.2 °F - 62.6 °F 88% 29.83 in 10.0 mi Calm Calm - N/A   Clear
9:55 PM 64.4 °F - 62.6 °F 94% 29.85 in 10.0 mi NW 4.6 mph - N/A   Clear
10:15 PM 64.4 °F - 62.6 °F 94% 29.85 in 10.0 mi North 5.8 mph - N/A   Clear
10:35 PM 64.4 °F - 62.6 °F 94% 29.86 in 10.0 mi North 8.1 mph - N/A   Clear
10:55 PM 62.6 °F - 60.8 °F 94% 29.88 in 10.0 mi NNW 9.2 mph - N/A   Clear
11:15 PM 62.6 °F - 57.2 °F 82% 29.89 in 10.0 mi NNW 8.1 mph - N/A   Clear
11:35 PM 60.8 °F - 55.4 °F 82% 29.90 in 10.0 mi NW 8.1 mph - N/A   Clear
11:55 PM 60.8 °F - 53.6 °F 77% 29.90 in 10.0 mi NW 5.8 mph - N/A   Partly Cloudy